This demonstration page uses our WeatherBlox Daily Observations layout. Learn more.

Left ArrowRight Arrow

Hourly Observations for March 11, 2016

Temp ( °F °C ) Dew Point ( °F °C ) Humidity (%) Winds ( mph kmh ) Pressure ( in mb ) Visibility ( mi km ) Precip ( " mm )
12:53 am 00:53 Cloudy 52 11.1 48 8.9 86 86 NW 5 7 30.16 1022 10 16 N/A
1:15 am 01:15 Cloudy 51 10.6 48 8.9 89 89 NNW 10 17 30.18 1022 9 14 N/A
1:53 am 01:53 Cloudy 50 10 46 7.8 86 86 NE 6 9 30.16 1021 9 14 N/A
2:08 am 02:08 Cloudy 50 10 47 8.3 89 89 NW 6 9 30.18 1022 9 14 N/A
2:53 am 02:53 Mostly Clear 49 9.4 46 7.8 90 90 NNW 5 7 30.18 1022 9 14 N/A
3:53 am 03:53 Clear 49 9.4 45 7.2 86 86 N 7 11 30.19 1022 9 14 N/A
4:53 am 04:53 Partly Cloudy 48 8.9 44 6.7 86 86 N N/A 30.21 1023 9 14 N/A
5:00 am 05:00 Mostly Cloudy 48 8.9 44 6.7 86 86 NNE 3 6 30.21 1023 9 14 N/A
5:37 am 05:37 Cloudy 48 8.9 45 7.2 89 89 NNE 7 11 30.24 1024 7 11 N/A
5:53 am 05:53 Cloudy 48 8.9 45 7.2 89 89 NNE 7 11 30.24 1024 7 11 N/A
6:28 am 06:28 Cloudy with Mist and Fog 48 8.9 45 7.2 89 89 NNE 7 11 30.27 1025 6 10 N/A
6:49 am 06:49 Cloudy with Mist and Fog 48 9 46 8 94 94 N 3 6 30.27 1025 6 10 N/A
6:53 am 06:53 Cloudy with Mist and Fog 48 8.9 46 7.8 93 93 N 5 7 30.28 1025 6 10 N/A
7:32 am 07:32 Cloudy with Mist and Fog 49 9.4 46 7.8 90 90 NNE 6 9 30.30 1026 5 8 N/A
7:53 am 07:53 Cloudy with Mist and Fog 49 9.4 46 7.8 90 90 NNE 6 9 30.30 1026 5 8 N/A
8:53 am 08:53 Cloudy with Mist and Fog 50 10 46 7.8 86 86 NE 6 9 30.32 1027 6 10 N/A
9:46 am 09:46 Partly Cloudy 50 10 43 6.1 77 77 NE 12 19 30.33 1027 10 16 N/A
9:53 am 09:53 Mostly Sunny 50 10 44 6.7 80 80 ENE 13 20 30.33 1027 10 16 N/A
10:34 am 10:34 Mostly Cloudy 51 10.6 43 6.1 74 74 ENE 12 19 30.33 1027 10 16 N/A
10:53 am 10:53 Mostly Cloudy 51 10.6 44 6.7 77 77 E 10 17 30.34 1028 10 16 N/A
11:09 am 11:09 Partly Cloudy 50 10 43 6.1 77 77 ENE 10 17 30.33 1027 10 16 N/A
11:20 am 11:20 Mostly Cloudy 51 10.6 43 6.1 74 74 NNE 10 17 30.33 1027 10 16 N/A
11:53 am 11:53 Partly Cloudy 52 11.1 44 6.7 75 75 NE 9 15 30.34 1027 10 16 N/A
12:53 pm 12:53 Mostly Sunny 53 11.7 44 6.7 72 72 E 8 13 30.35 1028 10 16 N/A
1:53 pm 13:53 Sunny 55 12.8 44 6.7 67 67 NNE 7 11 30.34 1027 10 16 N/A
2:53 pm 14:53 Sunny 56 13.3 44 6.7 65 65 ENE 8 13 30.32 1027 10 16 N/A
3:53 pm 15:53 Sunny 57 13.9 45 7.2 64 64 ENE 5 7 30.32 1027 10 16 N/A
4:53 pm 16:53 Sunny 59 15 46 7.8 62 62 NNE 8 13 30.30 1026 10 16 N/A
5:53 pm 17:53 Sunny 56 13.3 45 7.2 67 67 ENE 8 13 30.30 1026 10 16 N/A
6:53 pm 18:53 Clear 53 11.7 45 7.2 74 74 ENE 5 7 30.30 1026 10 16 N/A
7:53 pm 19:53 Clear 49 9.4 44 6.7 83 83 N N/A 30.30 1026 10 16 N/A
8:53 pm 20:53 Clear 47 8.3 43 6.1 86 86 ENE 3 6 30.30 1026 10 16 N/A
9:53 pm 21:53 Clear 45 7.2 44 6.7 97 97 N N/A 30.30 1026 10 16 N/A
10:53 pm 22:53 Clear 48 8.9 43 6.1 83 83 NE 5 7 30.30 1026 10 16 N/A
11:53 pm 23:53 Clear 45 7.2 42 5.6 90 90 ENE 3 6 30.29 1026 10 16 N/A

Powered by AerisWeather